カタログに戻る

EKRAN 2 DEB

運用中GEO
NORAD 12996·DEBRIS·🇷🇺 Russia

打ち上げ Sep 20, 1977 から Baikonur Cosmodrome

Loading…

TLE

最新Source: Space-Track

元期: Sep 14, 2026, 13:22 UTC

1 12996U 77092J   26257.55723383  .00000115  00000-0  00000-0 0  9997
2 12996   4.0815 273.6626 0023043 290.2511 207.2095  1.00037995 85407

AllMySatでEKRAN 2 DEBをリアルタイム追跡

Download on the App Store